Location: Newark
(44.3681°N, 100.3364°W)
Time: 09:01:17
(UTC+00:00)

Explorer 7 - Pass Details

Date: 25 February 2020
Orbit: 485 x 679 km, 50.3° (Epoch: 28 March)

Event Time Altitude Azimuth Distance (km) Brightness Sun altitude
Rises 19:47:09 0° 276° (W) 2,946 10.7 35.3°
Reaches altitude 10° 19:49:40 10° 284° (WNW) 2,007 9.8 35.1°
Maximum altitude 19:54:00 39° 353° (N) 911 7.9 34.9°
Drops below altitude 10° 19:58:05 10° 63° (ENE) 1,892 9.3 34.7°
Sets 20:00:24 0° 72° (ENE) 2,755 10.1 34.5°
